Location: Barruelo
(41.2448°N, 3.8231°W)
Time: 08:02:01
(UTC+00:00)

Cosmos 2227 Rocket - Pass Details

Date: 20 March 2026
Orbit: 836 x 845 km, 71.0° (Epoch: 18 April)

Event Time Altitude Azimuth Distance (km) Brightness Sun altitude
Rises 20:30:45 0° 346° (NNW) 3,413 5.9 -23.4°
Reaches altitude 10° 20:33:41 10° 360° (N) 2,475 4.9 -23.9°
Enters shadow 20:37:32 24° 42° (NE) 1,703 3.6 -24.6°
